Terminal Aerodrome Forecast
Issued by NWS Spokane, WA

Home | Current Version | Previous Version | Text Only | Print | Product List | Glossary On
Versions: 1 2 3 4 5 6 7 8 9 10 11 12 13 14 15 16 17 18 19 20 21 22 23 24 25 26 27 28 29 30 31 32 33 34 35 36 37 38 39 40 41 42 43 44 45 46
000
FTUS46 KOTX 202328
TAFGEG
TAF
KGEG 202328Z 2100/2124 26009KT P6SM SCT060 SCT150 BKN200
     FM210300 21008KT P6SM FEW050 BKN080 OVC120
     FM210600 21008KT P6SM -RA SCT020 BKN040 OVC060
     FM210900 21008KT 6SM +RA BKN020 OVC040
     FM211100 21008KT P6SM -RA SCT020 BKN040 OVC060
     FM211300 20008KT P6SM BKN025 OVC040=

USA.gov is the U.S. government's official web portal to all federal, state and local government web resources and services.